Fort Myers, FL

2:47 PM EDT on May 20, 2018 (GMT -0400)
Page

Weather History for KFMY - October, 2014

Change the Weather History Date:

Friday, October 31, 2014

  Actual Average Record
Temperature  
Mean Temperature 73 °F 75 °F  
Max Temperature 82 °F 84 °F 91 °F (1992)
Min Temperature 64 °F 65 °F 49 °F (1953)
Degree Days  
Heating Degree Days 0 0  
Month to date heating degree days 0 0  
Since 1 July heating degree days 0 2  
Cooling Degree Days 8 10  
Month to date cooling degree days 380 402  
Year to date cooling degree days 3791 3648  
Growing Degree Days 23 (Base 50)    
Moisture  
Dew Point 64 °F    
Average Humidity 75    
Maximum Humidity 97    
Minimum Humidity 51    
Precipitation  
Precipitation 0.08 in 0.06 in 1.68 in (1911)
Month to date precipitation 1.32 2.88  
Year to date precipitation 37.80 52.26  
Sea Level Pressure  
Sea Level Pressure 29.86 in    
Wind  
Wind Speed 7 mph (NNW)    
Max Wind Speed 20 mph    
Max Gust Speed 24 mph    
Visibility 10 miles    
Events Rain    
T = Trace of Precipitation, MM = Missing Value Source: NWS Daily Summary

Daily Weather History Graph

Daily Weather History Graph

Search for Another Location

Airport or City:

Astronomy

Oct. 31, 2014 Rise Set
Actual Time 7:36 AM EDT 6:45 PM EDT
Civil Twilight 7:12 AM EDT 7:09 PM EDT
Nautical Twilight 6:44 AM EDT 7:36 PM EDT
Astronomical Twilight 6:17 AM EDT 8:03 PM EDT
Moon 2:22 PM EDT (10/31) 1:02 AM EDT (10/31)
Length of Visible Light 11h 57m
Length of Day
11h 09m
First Quarter, 56% of the Moon is Illuminated
Oct 31
First Quarter
Nov 6
Full
Nov 14
Last Quarter
Nov 22
New
Nov 29
First Quarter

Hourly Weather History & Observations

Time (EDT) Temp. Heat Index Dew Point Humidity Pressure Visibility Wind Dir Wind Speed Gust Speed Precip Events Conditions
12:53 AM 73.0 °F - 69.1 °F 87% 29.89 in 10.0 mi Calm Calm - N/A   Mostly Cloudy
1:53 AM 73.0 °F - 69.1 °F 87% 29.87 in 10.0 mi Calm Calm - N/A   Clear
2:53 AM 72.0 °F - 69.1 °F 91% 29.85 in 10.0 mi Calm Calm - N/A   Partly Cloudy
3:53 AM 71.1 °F - 68.0 °F 90% 29.83 in 10.0 mi Calm Calm - N/A   Clear
4:53 AM 71.1 °F - 69.1 °F 93% 29.84 in 10.0 mi Calm Calm - 0.00 in Rain Light Rain
5:53 AM 71.1 °F - 68.0 °F 90% 29.83 in 10.0 mi Calm Calm - 0.08 in   Partly Cloudy
6:53 AM 69.1 °F - 68.0 °F 96% 29.84 in 8.0 mi NE 3.5 mph - N/A   Partly Cloudy
7:18 AM 70.0 °F - 69.1 °F 97% 29.84 in 7.0 mi North 3.5 mph - N/A   Mostly Cloudy
7:41 AM 70.0 °F - 68.0 °F 93% 29.85 in 9.0 mi Calm Calm - N/A   Mostly Cloudy
7:53 AM 70.0 °F - 68.0 °F 93% 29.86 in 8.0 mi Calm Calm - N/A   Scattered Clouds
8:26 AM 71.1 °F - 68.0 °F 90% 29.86 in 10.0 mi NNE 3.5 mph - N/A   Mostly Cloudy
8:53 AM 72.0 °F - 68.0 °F 87% 29.88 in 10.0 mi NNE 4.6 mph - N/A   Mostly Cloudy
9:03 AM 73.0 °F - 69.1 °F 87% 29.87 in 10.0 mi ENE 3.5 mph - N/A   Scattered Clouds
9:53 AM 75.0 °F - 68.0 °F 79% 29.89 in 10.0 mi North 5.8 mph - N/A   Clear
10:53 AM 77.0 °F - 66.9 °F 71% 29.89 in 10.0 mi North 5.8 mph - N/A   Mostly Cloudy
11:53 AM 79.0 °F - 66.0 °F 64% 29.87 in 10.0 mi North 9.2 mph - N/A   Partly Cloudy
12:53 PM 80.1 °F 82.1 °F 66.0 °F 62% 29.85 in 10.0 mi NW 8.1 mph - N/A   Partly Cloudy
1:53 PM 80.1 °F 81.9 °F 64.9 °F 60% 29.83 in 10.0 mi WNW 13.8 mph - N/A   Scattered Clouds
2:53 PM 80.1 °F 80.9 °F 60.1 °F 50% 29.82 in 10.0 mi NW 12.7 mph 20.7 mph N/A   Clear
3:53 PM 79.0 °F - 60.1 °F 52% 29.81 in 10.0 mi WNW 13.8 mph - N/A   Clear
4:53 PM 77.0 °F - 59.0 °F 54% 29.82 in 10.0 mi WNW 15.0 mph - N/A   Clear
5:53 PM 75.0 °F - 57.9 °F 55% 29.84 in 10.0 mi NW 15.0 mph - N/A   Clear
6:53 PM 72.0 °F - 57.9 °F 61% 29.86 in 10.0 mi NW 11.5 mph - N/A   Clear
7:53 PM 70.0 °F - 51.1 °F 51% 29.88 in 10.0 mi NW 11.5 mph - N/A   Clear
8:53 PM 66.9 °F - 54.0 °F 63% 29.91 in 10.0 mi NNW 8.1 mph - N/A   Clear
9:53 PM 66.0 °F - 54.0 °F 65% 29.93 in 10.0 mi NNW 6.9 mph - N/A   Clear
10:53 PM 66.0 °F - 55.0 °F 68% 29.93 in 10.0 mi NNW 6.9 mph - N/A   Clear
11:53 PM 64.9 °F - 55.0 °F 70% 29.94 in 10.0 mi NNW 4.6 mph - N/A   Clear